Location: Newark
(44.3248°N, 23.7839°E)
Time: 09:31:01
(UTC+00:00)

UNISAT 6 - Pass Details

Date: 24 April 2024
Orbit: 593 x 667 km, 97.7° (Epoch: 29 May)

Event Time Altitude Azimuth Distance (km) Brightness Sun altitude
Rises 02:45:04 0° 181° (S) 2,928 ? -7.6°
Reaches altitude 10° 02:47:21 10° 188° (S) 2,011 ? -7.2°
Maximum altitude 02:51:33 44° 261° (W) 861 ? -6.5°
Drops below altitude 10° 02:55:41 10° 335° (NNW) 1,983 ? -5.9°
Sets 02:57:56 0° 341° (NNW) 2,881 ? -5.5°
